FW5919 Saint Johns FL US current weather conditions

sailwx.info

Wind from 335 at 1 knots gusting 5

Air temperature 11.1° C
Dewpoint 9.0° C

Last reported at 2020-Jan-25 14:02 UTC.
Time now 2020-Jan-25 14:57 UTC

Location: N 30°03' W 081°37'.
View on Google Maps.

See reports from other nearby stations

  
Tides and Currents Weather Stations Pressure Air Temp Water Temp Dewpoint Dewpoint Depression Visibility Wind Speed Wind Dir Waves Ship Positions
date/time (UTC)wind fromknots sea level pressurealtimeterstation pressurevisibilityair tempwater tempwave heightnotes
2020-Jan-25 14:02 335 1 gusting 5 11.1
2020-Jan-25 13:51 285 0 gusting 5 10.6
2020-Jan-25 13:47 279 1 gusting 5 10.0
2020-Jan-25 13:40 302 10.0
2020-Jan-25 13:35 290 9.4
2020-Jan-25 13:25 309 9.4
2020-Jan-25 13:17 307 8.9
2020-Jan-25 13:05 307 8.9
2020-Jan-25 12:55 307 9.4
2020-Jan-25 12:45 307 9.4
2020-Jan-25 12:40 307 9.4
2020-Jan-25 12:35 307 9.4
2020-Jan-25 12:25 307 10.0
2020-Jan-25 12:15 308 10.0
2020-Jan-25 12:10 308 10.0
2020-Jan-25 12:01 308 10.6
2020-Jan-25 11:55 308 10.6
2020-Jan-25 11:50 318 10.6
2020-Jan-25 11:41 315 10.6
2020-Jan-25 11:20 282 11.1
2020-Jan-25 11:16 282 11.1
2020-Jan-25 11:05 282 11.1
2020-Jan-25 10:55 282 11.7
2020-Jan-25 10:45 284 12.2
2020-Jan-25 10:40 317 12.2
2020-Jan-25 10:30 315 0 gusting 3 12.2
2020-Jan-25 10:20 298 12.2
2020-Jan-25 10:16 315 1 gusting 5 12.8
2020-Jan-25 10:10 350 0 gusting 3 12.8
2020-Jan-25 10:00 312 0 gusting 5 12.8
2020-Jan-25 09:55 311 0 gusting 5 12.8
2020-Jan-25 09:46 319 1 gusting 5 12.8
2020-Jan-25 09:30 304 1 gusting 4 13.3
2020-Jan-25 09:25 313 1 gusting 5 13.3
2020-Jan-25 09:15 274 1 gusting 6 13.3
2020-Jan-25 08:55 252 0 gusting 3 12.8
2020-Jan-25 08:50 276 0 gusting 3 12.8
2020-Jan-25 08:45 263 0 gusting 3 12.8
2020-Jan-25 08:40 279 0 gusting 3 12.8
2020-Jan-25 08:31 279 0 gusting 2 12.8
2020-Jan-25 08:25 277 0 gusting 2 12.8
2020-Jan-25 08:16 277 13.3
2020-Jan-25 08:05 278 13.3
2020-Jan-25 07:55 271 13.3
2020-Jan-25 07:50 259 13.9
2020-Jan-25 07:46 259 13.9
2020-Jan-25 07:40 265 13.9
2020-Jan-25 07:30 273 13.9
2020-Jan-25 07:15 242 2 gusting 6 14.4
2020-Jan-25 07:05 279 0 gusting 2 14.4
2020-Jan-25 06:55 267 0 gusting 2 14.4
2020-Jan-25 06:45 249 14.4
2020-Jan-25 06:40 248 14.4
2020-Jan-25 06:31 248 15.0
2020-Jan-25 06:25 251 15.0
2020-Jan-25 06:20 251 15.0
2020-Jan-25 06:05 252 0 gusting 1 15.6
2020-Jan-25 05:55 250 0 gusting 3 15.6
2020-Jan-25 05:40 254 0 gusting 3 15.6
2020-Jan-25 05:30 232 0 gusting 3 16.1
2020-Jan-25 05:20 227 0 gusting 3 16.1
2020-Jan-25 05:10 241 1 gusting 4 16.1
2020-Jan-25 05:01 240 1 gusting 5 16.1
2020-Jan-25 04:55 241 0 gusting 6 16.1
2020-Jan-25 04:45 234 0 gusting 5 16.1
2020-Jan-25 04:35 215 1 gusting 6 16.1
2020-Jan-25 04:25 232 0 gusting 3 16.1
2020-Jan-25 04:20 231 1 gusting 3 16.1
2020-Jan-25 04:11 248 16.7
2020-Jan-25 04:05 263 0 gusting 3 16.7
2020-Jan-25 04:01 222 0 gusting 3 16.7
2020-Jan-25 03:50 220 0 gusting 2 16.7
2020-Jan-25 03:40 229 0 gusting 4 16.7
2020-Jan-25 03:35 225 1 gusting 4 17.2
2020-Jan-25 03:25 225 2 gusting 5 17.2
2020-Jan-25 03:18 263 1 gusting 6 17.2
2020-Jan-25 03:10 298 2 gusting 6 17.2
2020-Jan-25 03:01 220 0 gusting 4 16.7
2020-Jan-25 02:56 232 1 gusting 4 16.7
2020-Jan-25 02:45 219 0 gusting 4 16.7
2020-Jan-25 02:36 212 0 gusting 4 16.7
2020-Jan-25 02:30 244 1 gusting 4 16.7
2020-Jan-25 02:20 178 0 gusting 4 16.7
2020-Jan-25 02:10 184 0 gusting 3 16.7
2020-Jan-25 02:05 165 16.1
2020-Jan-25 01:45 183 16.1
2020-Jan-25 01:35 183 16.1
2020-Jan-25 01:31 183 15.6
2020-Jan-25 01:25 183 15.6
2020-Jan-25 01:10 183 16.1
2020-Jan-25 01:05 196 16.1
2020-Jan-25 00:55 197 16.1
2020-Jan-25 00:50 197 16.1
2020-Jan-25 00:35 197 16.1
2020-Jan-25 00:25 197 16.7
2020-Jan-25 00:20 197 16.7
2020-Jan-25 00:10 196 16.7
2020-Jan-25 00:00 196 16.7
2020-Jan-24 23:55 196 16.7
2020-Jan-24 23:47 196 16.7
2020-Jan-24 23:40 196 16.7
2020-Jan-24 23:36 196 17.2
2020-Jan-24 23:30 196 17.2
2020-Jan-24 23:25 196 17.2
2020-Jan-24 23:05 196 18.3
2020-Jan-24 23:00 196 18.3
2020-Jan-24 22:55 196 18.9
2020-Jan-24 22:50 196 18.9
2020-Jan-24 22:47 196 19.4
2020-Jan-24 22:25 178 0 gusting 2 20.0
2020-Jan-24 22:20 212 20.0
2020-Jan-24 22:10 184 1 gusting 3 20.0
2020-Jan-24 22:05 155 1 gusting 3 20.0
2020-Jan-24 22:00 186 0 gusting 3 20.0
2020-Jan-24 21:50 194 0 gusting 4 19.4
2020-Jan-24 21:41 232 0 gusting 3 19.4
2020-Jan-24 21:35 236 0 gusting 2 19.4
2020-Jan-24 21:31 227 0 gusting 2 19.4
2020-Jan-24 21:25 248 19.4
2020-Jan-24 21:20 248 0 gusting 2 19.4
2020-Jan-24 21:10 272 18.9
2020-Jan-24 21:05 272 18.9
2020-Jan-24 21:01 272 19.4
2020-Jan-24 20:55 272 19.4
2020-Jan-24 20:51 272 19.4
2020-Jan-24 20:46 272 19.4
2020-Jan-24 20:35 261 0 gusting 6 20.6
2020-Jan-24 20:25 246 1 gusting 3 21.7
2020-Jan-24 20:20 195 0 gusting 3 22.2
2020-Jan-24 20:10 204 0 gusting 5 22.2
2020-Jan-24 20:05 148 3 gusting 5 22.2
2020-Jan-24 19:50 180 3 gusting 7 22.8
2020-Jan-24 19:40 157 0 gusting 6 22.8
2020-Jan-24 19:30 204 2 gusting 5 23.3
2020-Jan-24 19:25 217 1 gusting 7 23.3
2020-Jan-24 19:20 165 4 gusting 7 23.3
2020-Jan-24 19:02 155 3 gusting 7 23.9
2020-Jan-24 18:46 146 3 gusting 6 24.4
2020-Jan-24 18:40 140 2 gusting 6 24.4
2020-Jan-24 18:30 132 2 gusting 12 23.3
2020-Jan-24 18:20 184 1 gusting 6 22.8
2020-Jan-24 18:05 222 4 gusting 8 23.3
2020-Jan-24 18:00 211 1 gusting 6 22.8
2020-Jan-24 17:55 172 3 gusting 6 22.8
2020-Jan-24 17:45 187 3 gusting 6 22.8
2020-Jan-24 17:41 172 2 gusting 7 22.8
2020-Jan-24 17:35 157 2 gusting 7 22.2
2020-Jan-24 17:25 189 3 gusting 7 22.8
2020-Jan-24 17:17 202 2 gusting 6 22.8
2020-Jan-24 17:11 200 3 gusting 8 22.8
2020-Jan-24 17:05 161 2 gusting 7 22.8
2020-Jan-24 16:55 200 3 gusting 7 22.8
2020-Jan-24 16:50 173 0 gusting 7 22.2
2020-Jan-24 16:45 159 3 gusting 6 22.8
2020-Jan-24 16:35 198 1 gusting 6 22.8
2020-Jan-24 16:25 158 2 gusting 7 22.2
2020-Jan-24 16:18 169 3 gusting 6 22.2
2020-Jan-24 16:10 192 0 gusting 6 21.7
2020-Jan-24 16:05 144 1 gusting 7 21.1
2020-Jan-24 15:55 191 3 gusting 8 20.6
2020-Jan-24 15:45 152 2 gusting 5 20.6
2020-Jan-24 15:40 153 2 gusting 7 20.6
2020-Jan-24 15:35 175 1 gusting 7 20.6
2020-Jan-24 15:31 195 5 gusting 7 20.6
2020-Jan-24 15:25 182 1 gusting 8 20.0
2020-Jan-24 15:11 187 3 gusting 8 20.0
2020-Jan-24 15:05 221 3 gusting 8 20.0
2020-Jan-24 14:55 206 2 gusting 7 19.4
2020-Jan-24 14:46 195 4 gusting 8 18.3
2020-Jan-24 14:40 187 1 gusting 9 17.8
2020-Jan-24 14:35 173 1 gusting 6 17.2
2020-Jan-24 14:31 171 0 gusting 6 16.7
2020-Jan-24 14:10 181 15.0
2020-Jan-24 14:00 080 14.4
2020-Jan-24 13:55 080 14.4
2020-Jan-24 13:50 078 13.9
2020-Jan-24 13:40 078 13.3
2020-Jan-24 13:32 078 13.3
2020-Jan-24 13:25 078 13.3
2020-Jan-24 13:20 078 12.8
2020-Jan-24 13:05 078 12.8
2020-Jan-24 13:02 078 12.8
2020-Jan-24 12:50 078 12.8
2020-Jan-24 12:46 078 12.8
2020-Jan-24 12:30 078 12.8
2020-Jan-24 12:20 078 12.8
2020-Jan-24 11:55 078 13.3
2020-Jan-24 11:50 078 13.3
2020-Jan-24 11:46 078 13.3
2020-Jan-24 11:30 078 13.3
2020-Jan-24 11:20 078 13.3
2020-Jan-24 11:15 078 13.3
2020-Jan-24 11:10 078 13.3
2020-Jan-24 10:55 078 13.3
2020-Jan-24 10:51 078 13.3
2020-Jan-24 10:46 078 13.9
2020-Jan-24 10:36 078 13.9
2020-Jan-24 10:30 078 13.9
2020-Jan-24 10:25 078 13.9
2020-Jan-24 10:16 078 13.3
2020-Jan-24 10:11 078 13.3
2020-Jan-24 10:05 078 13.9
2020-Jan-24 10:01 078 13.9
2020-Jan-24 09:46 078 13.9
2020-Jan-24 09:40 014 0 gusting 1 13.9
2020-Jan-24 09:32 014 13.9
2020-Jan-24 09:25 014 13.9
2020-Jan-24 09:20 014 13.9
2020-Jan-24 09:15 014 13.9
2020-Jan-24 09:05 014 13.9
2020-Jan-24 08:55 014 13.9
2020-Jan-24 08:35 014 13.3
2020-Jan-24 08:30 014 13.9
2020-Jan-24 08:17 014 13.3
2020-Jan-24 08:10 014 13.3
2020-Jan-24 08:00 014 13.3
2020-Jan-24 07:55 014 13.3
2020-Jan-24 07:25 014 13.9
2020-Jan-24 07:20 014 13.3
2020-Jan-24 07:10 015 13.3
2020-Jan-24 07:05 017 13.3
2020-Jan-24 06:55 017 13.3
2020-Jan-24 06:40 017 13.3
2020-Jan-24 06:31 017 13.3
2020-Jan-24 06:20 017 13.9
2020-Jan-24 06:10 017 13.9
2020-Jan-24 06:06 017 13.9
2020-Jan-24 05:55 017 13.9
2020-Jan-24 05:50 017 13.9
2020-Jan-24 05:45 017 13.9
2020-Jan-24 05:35 017 13.9
2020-Jan-24 05:31 017 13.9
2020-Jan-24 05:25 017 13.9
2020-Jan-24 05:15 017 13.9
2020-Jan-24 05:10 017 13.9
2020-Jan-24 05:05 017 13.9
2020-Jan-24 04:50 017 13.9
2020-Jan-24 04:40 017 13.9
2020-Jan-24 04:35 017 13.9
2020-Jan-24 04:30 017 13.9
2020-Jan-24 04:15 017 13.9
2020-Jan-24 04:05 017 13.9
2020-Jan-24 04:00 017 13.9
2020-Jan-24 03:40 017 14.4
2020-Jan-24 03:20 342 13.9
2020-Jan-24 03:15 343 13.9
2020-Jan-24 02:55 345 13.9
2020-Jan-24 02:40 343 13.9
2020-Jan-24 02:36 343 13.9
2020-Jan-24 02:34 343 13.9
2020-Jan-24 02:25 343 13.9
2020-Jan-24 02:10 335 13.9
2020-Jan-24 02:05 335 13.9
2020-Jan-24 02:00 335 13.9
2020-Jan-24 01:45 028 13.9
2020-Jan-24 01:35 336 13.9
2020-Jan-24 01:20 028 13.9
2020-Jan-24 01:10 355 13.9
2020-Jan-24 00:55 024 13.9
2020-Jan-24 00:45 355 13.9
2020-Jan-24 00:40 355 0 gusting 2 13.9
2020-Jan-24 00:25 327 13.3
2020-Jan-24 00:20 005 0 gusting 3 13.9
2020-Jan-24 00:17 340 13.3
2020-Jan-24 00:10 340 13.3
2020-Jan-24 00:05 339 0 gusting 5 13.3
2020-Jan-23 23:50 048 0 gusting 2 13.3
2020-Jan-23 23:40 331 0 gusting 2 13.3
2020-Jan-23 23:35 028 13.3
2020-Jan-23 23:31 029 13.3
2020-Jan-23 23:20 338 0 gusting 2 13.3
2020-Jan-23 23:15 058 13.3
2020-Jan-23 23:01 038 1 gusting 3 13.9
2020-Jan-23 22:55 034 0 gusting 3 13.9
2020-Jan-23 22:46 324 0 gusting 6 13.9
2020-Jan-23 22:35 117 0 gusting 5 13.9
2020-Jan-23 22:30 005 0 gusting 3 13.9
2020-Jan-23 22:25 022 0 gusting 3 13.9
2020-Jan-23 22:20 038 0 gusting 5 14.4
2020-Jan-23 22:15 081 1 gusting 7 14.4
2020-Jan-23 22:01 327 0 gusting 4 14.4
2020-Jan-23 21:55 055 1 gusting 4 14.4
2020-Jan-23 21:50 047 0 gusting 3 14.4
2020-Jan-23 21:46 355 0 gusting 3 15.0
2020-Jan-23 21:32 309 15.0
2020-Jan-23 21:20 005 1 gusting 5 15.6
2020-Jan-23 21:00 028 0 gusting 5 15.6
2020-Jan-23 20:45 011 0 gusting 5 16.1
2020-Jan-23 20:40 071 2 gusting 5 16.1
2020-Jan-23 20:35 302 0 gusting 3 16.1
2020-Jan-23 20:21 317 0 gusting 6 16.1
2020-Jan-23 20:16 355 0 gusting 2 16.7
2020-Jan-23 20:10 355 0 gusting 2 16.7
2020-Jan-23 20:00 290 2 gusting 6 16.7
2020-Jan-23 19:50 346 1 gusting 4 17.2
2020-Jan-23 19:47 344 0 gusting 3 17.2
2020-Jan-23 19:40 307 0 gusting 4 17.2
2020-Jan-23 19:35 060 1 gusting 4 16.7
2020-Jan-23 19:20 015 0 gusting 5 16.7
2020-Jan-23 19:05 296 16.7
2020-Jan-23 18:55 230 16.7
2020-Jan-23 18:32 040 1 gusting 4 16.7
2020-Jan-23 18:25 117 1 gusting 4 16.7
2020-Jan-23 18:15 107 16.7
2020-Jan-23 18:10 336 0 gusting 5 16.1
2020-Jan-23 18:01 059 0 gusting 4 16.7
2020-Jan-23 17:50 161 2 gusting 7 16.1
2020-Jan-23 17:40 304 1 gusting 4 16.1
2020-Jan-23 17:35 355 0 gusting 7 16.1
2020-Jan-23 17:25 355 1 gusting 8 16.1
2020-Jan-23 17:20 338 2 gusting 8 16.1
2020-Jan-23 17:15 005 1 gusting 5 16.7
2020-Jan-23 17:10 010 1 gusting 6 16.7
2020-Jan-23 17:01 341 3 gusting 7 16.1
2020-Jan-23 16:55 005 1 gusting 8 16.1
2020-Jan-23 16:35 349 1 gusting 3 16.1
2020-Jan-23 16:25 305 0 gusting 4 16.1
2020-Jan-23 16:20 025 0 gusting 5 16.1
2020-Jan-23 16:10 290 0 gusting 4 16.7
2020-Jan-23 16:01 174 2 gusting 6 16.1
2020-Jan-23 15:55 075 0 gusting 6 16.1
2020-Jan-23 15:50 355 2 gusting 6 16.1
2020-Jan-23 15:36 320 0 gusting 7 15.6
2020-Jan-23 15:25 338 2 gusting 7 15.6
2020-Jan-23 15:20 180 2 gusting 7 15.6
2020-Jan-23 15:10 074 0 gusting 7 15.6
2020-Jan-23 15:05 043 0 gusting 7 15.6
2020-Jan-23 15:00 355 0 gusting 5 15.0
2020-Jan-23 14:55 087 0 gusting 4 15.0
2020-Jan-23 14:45 040 0 gusting 6 15.0
2020-Jan-23 14:40 311 0 gusting 4 14.4
2020-Jan-23 14:25 323 1 gusting 3 13.9
2020-Jan-23 14:10 018 13.3